UKL583A UKWW-LGTS

Flight info

Callsign UKL583A
Flight time 1h 51m
Altitude 34000
Route KOROP DCT IDKOG DCT ROMOL/N0443F340 DCT BLO/N0444F330 N127 NIKTI UY505 PEREN UM603 ARNAS
Aircraft A306/H-SDE3FGHIRWY/LB1

Departure

Time 2026-04-28 08:56
Airport Vinnytsia/Gavyryshivka International Airport (UKWW)

Arrival

Time 2026-04-28 10:47
Airport Thessaloniki Macedonia International Airport (LGTS)
Time Latitude Longitude Altitude Speed Heading
2026-04-28 08:34 49.24435 28.60601 988 ft 0 kts 225°
2026-04-28 08:51 49.24430 28.60596 989 ft 2 kts 217°
2026-04-28 08:51 49.24379 28.60595 984 ft 12 kts 159°
2026-04-28 08:51 49.24316 28.60678 984 ft 10 kts 111°
2026-04-28 08:52 49.24328 28.60755 985 ft 9 kts 61°
2026-04-28 08:52 49.24333 28.60879 989 ft 12 kts 126°
2026-04-28 08:52 49.24246 28.61004 987 ft 23 kts 139°
2026-04-28 08:52 49.24098 28.61209 986 ft 33 kts 139°
2026-04-28 08:53 49.23933 28.61434 986 ft 31 kts 137°
2026-04-28 08:53 49.23783 28.61642 981 ft 28 kts 139°
2026-04-28 08:53 49.23638 28.61824 986 ft 25 kts 135°
2026-04-28 08:53 49.23518 28.62001 989 ft 23 kts 139°
2026-04-28 08:54 49.23406 28.62157 989 ft 20 kts 141°
2026-04-28 08:54 49.23349 28.62307 983 ft 15 kts 70°
2026-04-28 08:54 49.23404 28.62425 987 ft 13 kts 54°
2026-04-28 08:54 49.23447 28.62463 979 ft 4 kts 350°
2026-04-28 08:55 49.23466 28.62447 982 ft 4 kts 324°
2026-04-28 08:55 49.23636 28.62221 988 ft 67 kts 318°
2026-04-28 08:55 49.24148 28.61522 988 ft 128 kts 318°
2026-04-28 08:56 49.24961 28.60406 1038 ft 183 kts 317°
2026-04-28 08:56 49.26005 28.58967 1465 ft 218 kts 319°
2026-04-28 08:56 49.27223 28.57397 2193 ft 241 kts 319°
2026-04-28 08:56 49.28617 28.55691 2829 ft 269 kts 324°
2026-04-28 08:57 49.30407 28.54664 3595 ft 283 kts 354°
2026-04-28 08:57 49.32280 28.55356 4753 ft 281 kts 26°
2026-04-28 08:57 49.33622 28.57512 5852 ft 287 kts 58°
2026-04-28 08:57 49.34062 28.60517 6719 ft 298 kts 91°
2026-04-28 08:58 49.33430 28.63537 7492 ft 302 kts 126°
2026-04-28 08:58 49.31889 28.65646 8315 ft 297 kts 159°
2026-04-28 08:58 49.29926 28.66225 9117 ft 284 kts 193°
2026-04-28 08:58 49.28031 28.65548 9962 ft 281 kts 200°
2026-04-28 08:59 49.26021 28.65210 10441 ft 303 kts 186°
2026-04-28 08:59 49.23882 28.65177 10690 ft 318 kts 194°
2026-04-28 08:59 49.21844 28.63925 10919 ft 320 kts 221°
2026-04-28 08:59 49.20402 28.61351 11136 ft 324 kts 248°
2026-04-28 09:00 49.19830 28.58026 11473 ft 328 kts 266°
2026-04-28 09:00 49.19660 28.54527 11988 ft 332 kts 269°
2026-04-28 09:00 49.19496 28.50986 12547 ft 336 kts 268°
2026-04-28 09:00 49.19304 28.47411 13145 ft 339 kts 268°
2026-04-28 09:01 49.19089 28.43812 13740 ft 342 kts 267°
2026-04-28 09:01 49.18860 28.40182 14289 ft 344 kts 267°
2026-04-28 09:01 49.18621 28.36527 14811 ft 347 kts 267°
2026-04-28 09:01 49.18460 28.34093 15116 ft 349 kts 267°
2026-04-28 09:02 49.18125 28.29106 15744 ft 354 kts 267°
2026-04-28 09:02 49.17870 28.25356 16302 ft 356 kts 267°
2026-04-28 09:02 49.17611 28.21579 16833 ft 359 kts 267°
2026-04-28 09:02 49.17349 28.17770 17386 ft 361 kts 267°
2026-04-28 09:03 49.17086 28.13952 17916 ft 363 kts 267°
2026-04-28 09:03 49.16818 28.10107 18430 ft 365 kts 267°
2026-04-28 09:03 49.16547 28.06230 18876 ft 368 kts 267°
2026-04-28 09:03 49.16274 28.02329 19303 ft 370 kts 267°
2026-04-28 09:04 49.15997 27.98414 19724 ft 372 kts 267°
2026-04-28 09:04 49.15716 27.94473 20144 ft 374 kts 267°
2026-04-28 09:04 49.15423 27.90507 20553 ft 376 kts 266°
2026-04-28 09:04 49.14924 27.86568 20955 ft 381 kts 259°
2026-04-28 09:05 49.14010 27.82725 21349 ft 389 kts 250°
2026-04-28 09:05 49.12705 27.79079 21728 ft 394 kts 244°
2026-04-28 09:05 49.11236 27.75527 22104 ft 398 kts 242°
2026-04-28 09:05 49.09684 27.72008 22453 ft 401 kts 241°
2026-04-28 09:06 49.08099 27.68500 22829 ft 403 kts 240°
2026-04-28 09:06 49.06503 27.64978 23204 ft 405 kts 241°
2026-04-28 09:06 49.04907 27.61432 23568 ft 406 kts 241°
2026-04-28 09:06 49.03315 27.57866 23883 ft 408 kts 241°
2026-04-28 09:07 49.02261 27.55496 24059 ft 409 kts 241°
2026-04-28 09:07 49.00127 27.50682 24453 ft 411 kts 241°
2026-04-28 09:07 48.99067 27.48289 24642 ft 412 kts 241°
2026-04-28 09:07 48.96943 27.43491 25009 ft 414 kts 241°
2026-04-28 09:08 48.95329 27.39851 25279 ft 415 kts 241°
2026-04-28 09:08 48.93709 27.36204 25483 ft 418 kts 241°
2026-04-28 09:08 48.92075 27.32531 25703 ft 420 kts 241°
2026-04-28 09:08 48.90435 27.28849 25978 ft 421 kts 241°
2026-04-28 09:09 48.89324 27.26358 26129 ft 422 kts 241°
2026-04-28 09:09 48.87669 27.22656 26329 ft 425 kts 241°
2026-04-28 09:09 48.86008 27.18945 26610 ft 425 kts 241°
2026-04-28 09:09 48.84366 27.15282 26855 ft 426 kts 241°
2026-04-28 09:10 48.82698 27.11563 27087 ft 427 kts 241°
2026-04-28 09:10 48.81021 27.07831 27291 ft 429 kts 241°
2026-04-28 09:10 48.79335 27.04084 27518 ft 430 kts 241°
2026-04-28 09:10 48.77643 27.00328 27634 ft 433 kts 241°
2026-04-28 09:11 48.75937 26.96541 27791 ft 435 kts 241°
2026-04-28 09:11 48.74226 26.92751 28018 ft 436 kts 240°
2026-04-28 09:11 48.72510 26.88958 28240 ft 437 kts 240°
2026-04-28 09:11 48.70794 26.85173 28554 ft 436 kts 240°
2026-04-28 09:12 48.69079 26.81398 28863 ft 435 kts 240°
2026-04-28 09:12 48.67363 26.77624 29159 ft 434 kts 241°
2026-04-28 09:12 48.65657 26.73881 29482 ft 433 kts 240°
2026-04-28 09:12 48.63946 26.70128 29767 ft 432 kts 241°
2026-04-28 09:13 48.62243 26.66390 29908 ft 434 kts 241°
2026-04-28 09:13 48.60526 26.62625 30109 ft 435 kts 241°
2026-04-28 09:13 48.58807 26.58866 30379 ft 434 kts 241°
2026-04-28 09:13 48.57089 26.55116 30633 ft 433 kts 241°
2026-04-28 09:14 48.55381 26.51394 30897 ft 432 kts 241°
2026-04-28 09:14 48.53668 26.47668 31154 ft 431 kts 241°
2026-04-28 09:14 48.51959 26.43953 31403 ft 430 kts 241°
2026-04-28 09:14 48.50253 26.40249 31656 ft 430 kts 241°
2026-04-28 09:15 48.48551 26.36559 31889 ft 429 kts 241°
2026-04-28 09:15 48.46844 26.32863 32110 ft 429 kts 241°
2026-04-28 09:15 48.45140 26.29179 32354 ft 428 kts 241°
2026-04-28 09:15 48.43441 26.25510 32595 ft 428 kts 241°
2026-04-28 09:16 48.41740 26.21842 32836 ft 427 kts 241°
2026-04-28 09:16 48.40038 26.18177 33080 ft 426 kts 241°
2026-04-28 09:16 48.38362 26.14573 33352 ft 425 kts 241°
2026-04-28 09:16 48.36644 26.10884 33598 ft 425 kts 241°
2026-04-28 09:17 48.34952 26.07257 33832 ft 424 kts 241°
2026-04-28 09:17 48.33257 26.03626 34067 ft 424 kts 241°
2026-04-28 09:17 48.31562 25.99997 34140 ft 423 kts 242°
2026-04-28 09:18 48.28217 25.92858 34176 ft 419 kts 242°
2026-04-28 09:18 48.24855 25.85705 34176 ft 419 kts 242°
2026-04-28 09:19 48.21496 25.78569 34172 ft 419 kts 241°
2026-04-28 09:19 48.18126 25.71431 34173 ft 419 kts 241°
2026-04-28 09:20 48.14752 25.64304 34177 ft 419 kts 241°
2026-04-28 09:20 48.11380 25.57199 34171 ft 419 kts 241°
2026-04-28 09:21 48.07932 25.50155 34166 ft 423 kts 237°
2026-04-28 09:21 48.03697 25.43904 34173 ft 430 kts 230°
2026-04-28 09:22 47.99198 25.37971 34149 ft 431 kts 229°
2026-04-28 09:22 47.94666 25.32117 34171 ft 430 kts 229°
2026-04-28 09:23 47.90151 25.26270 34166 ft 430 kts 229°
2026-04-28 09:23 47.85647 25.20422 34163 ft 430 kts 229°
2026-04-28 09:24 47.81141 25.14570 34144 ft 429 kts 229°
2026-04-28 09:24 47.76603 25.08819 34144 ft 432 kts 225°
2026-04-28 09:25 47.71216 25.04479 34146 ft 453 kts 207°
2026-04-28 09:25 47.65000 25.02285 34146 ft 464 kts 199°
2026-04-28 09:26 47.58625 25.00648 34140 ft 465 kts 198°
2026-04-28 09:26 47.52248 24.99066 34143 ft 464 kts 198°
2026-04-28 09:27 47.42683 24.96565 34145 ft 465 kts 199°
2026-04-28 09:27 47.36325 24.94869 34134 ft 464 kts 199°
2026-04-28 09:28 47.29970 24.93196 34137 ft 464 kts 199°
2026-04-28 09:28 47.23607 24.91547 34135 ft 464 kts 199°
2026-04-28 09:29 47.17241 24.89891 34137 ft 465 kts 199°
2026-04-28 09:29 47.10884 24.88234 34148 ft 464 kts 199°
2026-04-28 09:30 47.04530 24.86586 34146 ft 463 kts 199°
2026-04-28 09:30 46.98224 24.84948 34105 ft 463 kts 198°
2026-04-28 09:31 46.91872 24.83302 34162 ft 464 kts 198°
2026-04-28 09:31 46.85514 24.81659 34167 ft 464 kts 198°
2026-04-28 09:32 46.79155 24.80021 34157 ft 464 kts 198°
2026-04-28 09:32 46.72790 24.78391 34156 ft 464 kts 198°
2026-04-28 09:33 46.66424 24.76758 34162 ft 464 kts 198°
2026-04-28 09:33 46.60060 24.75128 34165 ft 464 kts 198°
2026-04-28 09:34 46.53700 24.73503 34162 ft 464 kts 198°
2026-04-28 09:34 46.47332 24.71875 34173 ft 465 kts 198°
2026-04-28 09:35 46.40964 24.70260 34174 ft 465 kts 198°
2026-04-28 09:35 46.34583 24.68647 34132 ft 465 kts 197°
2026-04-28 09:36 46.28203 24.67037 34159 ft 465 kts 197°
2026-04-28 09:36 46.21821 24.65427 34161 ft 465 kts 197°
2026-04-28 09:37 46.15440 24.63820 34154 ft 467 kts 197°
2026-04-28 09:37 46.09035 24.62208 34172 ft 468 kts 197°
2026-04-28 09:38 46.02666 24.60617 34155 ft 467 kts 197°
2026-04-28 09:38 45.96266 24.59024 34153 ft 467 kts 197°
2026-04-28 09:39 45.89852 24.57426 34150 ft 467 kts 197°
2026-04-28 09:39 45.83459 24.55835 34149 ft 467 kts 197°
2026-04-28 09:40 45.77055 24.54246 34139 ft 467 kts 197°
2026-04-28 09:40 45.70654 24.52661 34132 ft 467 kts 197°
2026-04-28 09:41 45.64251 24.51080 34137 ft 467 kts 197°
2026-04-28 09:41 45.57830 24.49504 34132 ft 467 kts 197°
2026-04-28 09:42 45.51423 24.47924 34100 ft 468 kts 197°
2026-04-28 09:42 45.44989 24.46340 34111 ft 469 kts 196°
2026-04-28 09:43 45.38547 24.44769 34117 ft 470 kts 196°
2026-04-28 09:43 45.32148 24.43212 34093 ft 470 kts 196°
2026-04-28 09:44 45.25705 24.41642 34107 ft 470 kts 196°
2026-04-28 09:44 45.19262 24.40075 34107 ft 470 kts 196°
2026-04-28 09:45 45.12822 24.38515 34081 ft 470 kts 196°
2026-04-28 09:45 45.06388 24.36958 34110 ft 469 kts 196°
2026-04-28 09:46 44.99951 24.35406 34114 ft 469 kts 196°
2026-04-28 09:46 44.93522 24.33859 34115 ft 469 kts 196°
2026-04-28 09:47 44.87088 24.32314 34120 ft 470 kts 195°
2026-04-28 09:47 44.80638 24.30766 34115 ft 471 kts 195°
2026-04-28 09:48 44.74181 24.29224 34116 ft 471 kts 195°
2026-04-28 09:48 44.67717 24.27682 34124 ft 471 kts 195°
2026-04-28 09:49 44.61253 24.26143 34123 ft 471 kts 195°
2026-04-28 09:49 44.54796 24.24610 34122 ft 471 kts 195°
2026-04-28 09:50 44.48329 24.23077 34120 ft 471 kts 195°
2026-04-28 09:50 44.41855 24.21547 34123 ft 472 kts 195°
2026-04-28 09:51 44.35388 24.20022 34122 ft 472 kts 195°
2026-04-28 09:51 44.28919 24.18500 34115 ft 472 kts 195°
2026-04-28 09:52 44.22432 24.16974 34116 ft 474 kts 195°
2026-04-28 09:52 44.15927 24.15449 34115 ft 474 kts 195°
2026-04-28 09:53 44.09414 24.13928 34116 ft 474 kts 195°
2026-04-28 09:53 44.02917 24.12414 34113 ft 474 kts 195°
2026-04-28 09:54 43.96407 24.10899 34113 ft 474 kts 195°
2026-04-28 09:54 43.89902 24.09388 34113 ft 475 kts 194°
2026-04-28 09:55 43.83389 24.07879 34110 ft 475 kts 194°
2026-04-28 09:55 43.76870 24.06372 34111 ft 475 kts 194°
2026-04-28 09:56 43.71447 24.05121 34107 ft 475 kts 194°
2026-04-28 09:56 43.64936 24.03621 34106 ft 476 kts 194°
2026-04-28 09:57 43.58394 24.02117 34104 ft 477 kts 194°
2026-04-28 09:57 43.51842 24.00615 34110 ft 477 kts 194°
2026-04-28 09:58 43.45294 23.99118 34108 ft 477 kts 194°
2026-04-28 09:58 43.38747 23.97625 34109 ft 477 kts 194°
2026-04-28 09:59 43.32184 23.96130 34112 ft 477 kts 194°
2026-04-28 09:59 43.25633 23.94643 34116 ft 477 kts 194°
2026-04-28 10:00 43.19118 23.93165 34105 ft 477 kts 193°
2026-04-28 10:00 43.12565 23.91682 34114 ft 478 kts 193°
2026-04-28 10:01 43.06001 23.90194 34116 ft 479 kts 193°
2026-04-28 10:01 42.99416 23.88712 34119 ft 480 kts 193°
2026-04-28 10:02 42.92820 23.87233 34117 ft 481 kts 193°
2026-04-28 10:02 42.86213 23.85753 34122 ft 481 kts 193°
2026-04-28 10:03 42.79617 23.84273 34113 ft 481 kts 193°
2026-04-28 10:03 42.73017 23.82799 34121 ft 481 kts 193°
2026-04-28 10:04 42.66327 23.82077 34120 ft 486 kts 178°
2026-04-28 10:04 42.59652 23.83719 34120 ft 489 kts 168°
2026-04-28 10:05 42.53055 23.85988 34116 ft 488 kts 166°
2026-04-28 10:05 42.46491 23.88333 34116 ft 487 kts 167°
2026-04-28 10:06 42.39931 23.90629 34118 ft 486 kts 167°
2026-04-28 10:06 42.33382 23.92883 34120 ft 484 kts 167°
2026-04-28 10:07 42.26819 23.94870 34116 ft 481 kts 171°
2026-04-28 10:07 42.20251 23.96431 34118 ft 479 kts 172°
2026-04-28 10:08 42.13686 23.97943 34117 ft 479 kts 172°
2026-04-28 10:08 42.07163 23.99493 34112 ft 479 kts 171°
2026-04-28 10:09 42.00603 24.01081 34110 ft 479 kts 171°
2026-04-28 10:09 41.94063 24.02670 34106 ft 476 kts 171°
2026-04-28 10:10 41.87535 24.04253 34104 ft 476 kts 171°
2026-04-28 10:10 41.81035 24.05824 33833 ft 471 kts 171°
2026-04-28 10:11 41.77838 24.06597 33557 ft 464 kts 171°
2026-04-28 10:11 41.74680 24.07359 33302 ft 459 kts 171°
2026-04-28 10:11 41.71551 24.08112 33026 ft 456 kts 171°
2026-04-28 10:11 41.68895 24.08751 32799 ft 454 kts 171°
2026-04-28 10:12 41.65792 24.09496 32549 ft 452 kts 171°
2026-04-28 10:12 41.62711 24.10235 32277 ft 450 kts 171°
2026-04-28 10:12 41.59632 24.10973 32009 ft 448 kts 171°
2026-04-28 10:12 41.56566 24.11622 31751 ft 446 kts 176°
2026-04-28 10:13 41.53478 24.11773 31488 ft 441 kts 185°
2026-04-28 10:13 41.50422 24.11471 31245 ft 439 kts 187°
2026-04-28 10:13 41.47396 24.11045 30993 ft 437 kts 189°
2026-04-28 10:13 41.44384 24.10553 30761 ft 435 kts 189°
2026-04-28 10:14 41.41386 24.10036 30501 ft 434 kts 189°
2026-04-28 10:14 41.38395 24.09512 30265 ft 433 kts 189°
2026-04-28 10:14 41.35428 24.08997 29997 ft 432 kts 189°
2026-04-28 10:14 41.32448 24.08488 29713 ft 430 kts 189°
2026-04-28 10:15 41.29487 24.07990 29440 ft 428 kts 189°
2026-04-28 10:15 41.26543 24.07500 29156 ft 425 kts 189°
2026-04-28 10:15 41.23617 24.07016 28889 ft 424 kts 189°
2026-04-28 10:15 41.20702 24.06535 28604 ft 422 kts 188°
2026-04-28 10:16 41.17799 24.06056 28319 ft 420 kts 188°
2026-04-28 10:16 41.14898 24.05579 28071 ft 418 kts 188°
2026-04-28 10:16 41.12022 24.05107 27807 ft 416 kts 188°
2026-04-28 10:16 41.09163 24.04637 27547 ft 414 kts 188°
2026-04-28 10:17 41.06304 24.04168 27287 ft 413 kts 188°
2026-04-28 10:17 41.03453 24.03699 27023 ft 411 kts 188°
2026-04-28 10:17 41.00624 24.03236 26767 ft 410 kts 188°
2026-04-28 10:17 40.97796 24.02783 26514 ft 409 kts 188°
2026-04-28 10:18 40.94983 24.02337 26266 ft 407 kts 188°
2026-04-28 10:18 40.92169 24.01893 26018 ft 405 kts 188°
2026-04-28 10:18 40.89430 24.01461 25784 ft 403 kts 188°
2026-04-28 10:18 40.86625 24.01020 25534 ft 401 kts 188°
2026-04-28 10:19 40.83855 24.00581 25301 ft 400 kts 187°
2026-04-28 10:19 40.81052 24.00139 25041 ft 400 kts 187°
2026-04-28 10:19 40.78292 23.99705 24805 ft 400 kts 187°
2026-04-28 10:19 40.75535 23.99271 24571 ft 398 kts 187°
2026-04-28 10:20 40.72784 23.98838 24334 ft 397 kts 187°
2026-04-28 10:20 40.70047 23.98407 24099 ft 395 kts 187°
2026-04-28 10:20 40.67325 23.97980 23871 ft 393 kts 187°
2026-04-28 10:20 40.64612 23.97554 23633 ft 392 kts 187°
2026-04-28 10:21 40.61906 23.97130 23357 ft 391 kts 187°
2026-04-28 10:21 40.59223 23.96586 23071 ft 389 kts 195°
2026-04-28 10:21 40.56745 23.95362 22809 ft 385 kts 210°
2026-04-28 10:21 40.54614 23.93299 22536 ft 379 kts 228°
2026-04-28 10:22 40.53105 23.90523 22275 ft 372 kts 247°
2026-04-28 10:22 40.52389 23.87307 22005 ft 364 kts 268°
2026-04-28 10:22 40.52646 23.84057 21751 ft 356 kts 289°
2026-04-28 10:22 40.53461 23.80989 21498 ft 355 kts 294°
2026-04-28 10:23 40.54419 23.78010 21220 ft 353 kts 296°
2026-04-28 10:23 40.55358 23.75049 20735 ft 347 kts 289°
2026-04-28 10:23 40.55714 23.71966 20316 ft 339 kts 271°
2026-04-28 10:23 40.55545 23.68901 19809 ft 334 kts 265°
2026-04-28 10:24 40.55227 23.65890 19265 ft 331 kts 263°
2026-04-28 10:24 40.54860 23.62922 18716 ft 327 kts 262°
2026-04-28 10:24 40.54472 23.59984 18120 ft 324 kts 261°
2026-04-28 10:24 40.54075 23.57085 17506 ft 321 kts 261°
2026-04-28 10:25 40.53673 23.54205 16834 ft 320 kts 261°
2026-04-28 10:25 40.53270 23.51346 16220 ft 317 kts 261°
2026-04-28 10:25 40.52867 23.48514 15656 ft 314 kts 261°
2026-04-28 10:25 40.52466 23.45710 15078 ft 311 kts 261°
2026-04-28 10:26 40.52068 23.42933 14518 ft 308 kts 261°
2026-04-28 10:26 40.51674 23.40185 13995 ft 304 kts 261°
2026-04-28 10:26 40.51283 23.37469 13370 ft 301 kts 261°
2026-04-28 10:26 40.50893 23.34770 12757 ft 300 kts 261°
2026-04-28 10:27 40.50506 23.32088 12166 ft 298 kts 261°
2026-04-28 10:27 40.50119 23.29421 11580 ft 296 kts 261°
2026-04-28 10:27 40.49734 23.26776 10999 ft 294 kts 261°
2026-04-28 10:27 40.49351 23.24146 10406 ft 292 kts 261°
2026-04-28 10:28 40.48970 23.21537 9792 ft 290 kts 262°
2026-04-28 10:28 40.48589 23.18941 9206 ft 288 kts 261°
2026-04-28 10:28 40.48215 23.16373 8637 ft 285 kts 261°
2026-04-28 10:29 40.47473 23.11292 7499 ft 281 kts 261°
2026-04-28 10:29 40.47105 23.08778 6960 ft 280 kts 261°
2026-04-28 10:29 40.46735 23.06260 6468 ft 281 kts 261°
2026-04-28 10:29 40.46369 23.03756 6166 ft 278 kts 260°
2026-04-28 10:30 40.45860 23.01318 5843 ft 278 kts 250°
2026-04-28 10:30 40.44927 22.99103 5504 ft 278 kts 234°
2026-04-28 10:30 40.43620 22.97237 5172 ft 277 kts 222°
2026-04-28 10:30 40.42134 22.95693 4831 ft 276 kts 217°
2026-04-28 10:31 40.40585 22.94227 4492 ft 273 kts 216°
2026-04-28 10:31 40.39028 22.92817 4213 ft 271 kts 215°
2026-04-28 10:31 40.37466 22.91440 4145 ft 271 kts 214°
2026-04-28 10:31 40.35897 22.90074 4149 ft 271 kts 214°
2026-04-28 10:32 40.34317 22.88716 4129 ft 272 kts 212°
2026-04-28 10:32 40.32602 22.87689 4065 ft 272 kts 195°
2026-04-28 10:32 40.30735 22.87489 3935 ft 270 kts 171°
2026-04-28 10:32 40.29011 22.88373 3810 ft 268 kts 143°
2026-04-28 10:33 40.27830 22.90209 3690 ft 266 kts 114°
2026-04-28 10:33 40.27462 22.92549 3563 ft 264 kts 85°
2026-04-28 10:33 40.27966 22.94821 3489 ft 258 kts 58°
2026-04-28 10:33 40.29143 22.96472 3492 ft 241 kts 32°
2026-04-28 10:34 40.30641 22.97268 3501 ft 226 kts 14°
2026-04-28 10:34 40.32151 22.97635 3499 ft 218 kts
2026-04-28 10:34 40.33664 22.97813 3499 ft 218 kts
2026-04-28 10:34 40.35174 22.97923 3517 ft 214 kts
2026-04-28 10:35 40.36619 22.98024 3486 ft 210 kts
2026-04-28 10:35 40.38060 22.98140 3313 ft 202 kts
2026-04-28 10:35 40.39408 22.98269 3291 ft 188 kts
2026-04-28 10:35 40.40701 22.98417 3296 ft 186 kts
2026-04-28 10:36 40.41987 22.98584 3299 ft 186 kts
2026-04-28 10:36 40.43254 22.98757 3312 ft 176 kts
2026-04-28 10:36 40.44425 22.98922 3304 ft 164 kts
2026-04-28 10:36 40.45558 22.98967 3298 ft 164 kts 352°
2026-04-28 10:37 40.46698 22.98704 3197 ft 171 kts 347°
2026-04-28 10:37 40.47911 22.98297 2501 ft 185 kts 347°
2026-04-28 10:37 40.49101 22.98235 2457 ft 164 kts 13°
2026-04-28 10:37 40.50125 22.98918 2481 ft 167 kts 39°
2026-04-28 10:38 40.51006 22.99917 2648 ft 169 kts 41°
2026-04-28 10:38 40.51728 23.01067 2892 ft 157 kts 64°
2026-04-28 10:38 40.52039 23.02461 3257 ft 163 kts 77°
2026-04-28 10:38 40.52228 23.03904 3481 ft 159 kts 79°
2026-04-28 10:39 40.52435 23.05326 3431 ft 158 kts 77°
2026-04-28 10:39 40.52640 23.06746 3307 ft 158 kts 84°
2026-04-28 10:39 40.52324 23.08112 3184 ft 162 kts 120°
2026-04-28 10:39 40.51784 23.09386 3394 ft 163 kts 116°
2026-04-28 10:40 40.51292 23.10765 3486 ft 167 kts 114°
2026-04-28 10:40 40.50852 23.12124 3392 ft 159 kts 111°
2026-04-28 10:40 40.50444 23.13486 3202 ft 159 kts 114°
2026-04-28 10:40 40.49847 23.14700 2841 ft 160 kts 131°
2026-04-28 10:41 40.49068 23.15750 2348 ft 161 kts 132°
2026-04-28 10:41 40.48372 23.16870 2009 ft 155 kts 132°
2026-04-28 10:41 40.47475 23.17573 1891 ft 150 kts 178°
2026-04-28 10:41 40.46817 23.17360 1735 ft 151 kts 220°
2026-04-28 10:42 40.46427 23.16171 1350 ft 145 kts 279°
2026-04-28 10:42 40.46809 23.14922 916 ft 149 kts 300°
2026-04-28 10:42 40.47343 23.13760 890 ft 152 kts 298°
2026-04-28 10:42 40.47686 23.12462 1145 ft 153 kts 281°
2026-04-28 10:43 40.47635 23.11015 1807 ft 164 kts 258°
2026-04-28 10:43 40.47103 23.09664 2130 ft 171 kts 231°
2026-04-28 10:43 40.46324 23.08484 2323 ft 171 kts 234°
2026-04-28 10:43 40.45718 23.07117 2322 ft 175 kts 240°
2026-04-28 10:44 40.45147 23.05744 2118 ft 166 kts 239°
2026-04-28 10:44 40.44568 23.04436 1639 ft 169 kts 240°
2026-04-28 10:44 40.44029 23.03134 1508 ft 157 kts 242°
2026-04-28 10:44 40.43787 23.01732 1495 ft 159 kts 272°
2026-04-28 10:45 40.44132 23.00406 1312 ft 152 kts 300°
2026-04-28 10:45 40.44856 22.99444 1098 ft 150 kts 329°
2026-04-28 10:45 40.45847 22.98984 951 ft 153 kts 345°
2026-04-28 10:45 40.46889 22.98700 786 ft 150 kts 347°
2026-04-28 10:46 40.47886 22.98387 633 ft 144 kts 343°
2026-04-28 10:46 40.48838 22.98063 431 ft 140 kts 346°
2026-04-28 10:46 40.49777 22.97787 301 ft 136 kts 345°
2026-04-28 10:46 40.50706 22.97492 146 ft 139 kts 345°
2026-04-28 10:47 40.51620 22.97206 37 ft 125 kts 347°
2026-04-28 10:47 40.52364 22.96971 34 ft 97 kts 347°
2026-04-28 10:47 40.52788 22.96838 36 ft 34 kts 346°
2026-04-28 10:47 40.52953 22.96788 35 ft 21 kts 356°
2026-04-28 10:48 40.53057 22.96868 34 ft 15 kts 76°
2026-04-28 10:48 40.53010 22.96946 35 ft 9 kts 152°
2026-04-28 10:48 40.52962 22.96964 35 ft 6 kts 164°
2026-04-28 10:48 40.52922 22.96977 35 ft 5 kts 167°
2026-04-28 10:49 40.52861 22.96998 35 ft 16 kts 165°
2026-04-28 10:49 40.52758 22.97029 35 ft 14 kts 167°
2026-04-28 10:49 40.52650 22.97065 35 ft 20 kts 165°
2026-04-28 10:49 40.52590 22.97085 35 ft 0 kts 165°
2026-04-28 10:50 40.52579 22.97089 35 ft 7 kts 159°
2026-04-28 10:50 40.52568 22.97118 35 ft 2 kts 80°
2026-04-28 10:50 40.52571 22.97161 35 ft 6 kts 103°
2026-04-28 10:50 40.52548 22.97190 34 ft 4 kts 150°
2026-04-28 10:51 40.52532 22.97199 34 ft 0 kts 159°
2026-04-28 10:51 40.52519 22.97211 34 ft 5 kts 139°
2026-04-28 10:52 40.52506 22.97247 34 ft 4 kts 100°
2026-04-28 10:52 40.52511 22.97267 34 ft 1 kts 59°
2026-04-28 10:52 40.52523 22.97287 34 ft 3 kts 49°
2026-04-28 10:52 40.52528 22.97293 34 ft 0 kts 47°
2026-04-28 10:53 40.52530 22.97296 34 ft 0 kts 47°
2026-04-28 10:53 40.52531 22.97297 34 ft 0 kts 47°